Satellite-Ground Cal/Val Region Overpasses Predictions

Prediction of Satellite NPP Overpassing Cal/Val Region: PacNW

Region Location: (Latitude: 10.00, Longitude: 139.50) to (Latitude: 22.70, Longitude: 165.60).

Table of predicted overpasses for the next 14.0 days since TLE Epoch: 10/3/2013
Interval Starting Time Starting Location Ending Time Ending Location
1 10/04/2013 02:40:20 ( 10.01, 159.81) 10/04/2013 02:43:56 ( 22.69, 156.78)
2 10/04/2013 15:12:14 ( 22.65, 157.05) 10/04/2013 15:15:49 ( 10.03, 154.04)
3 10/05/2013 02:21:19 ( 10.05, 164.56) 10/05/2013 02:24:54 ( 22.67, 161.55)
4 10/05/2013 14:53:12 ( 22.67, 161.82) 10/05/2013 14:56:47 ( 10.05, 158.81)
5 10/06/2013 03:43:48 ( 10.03, 143.94) 10/06/2013 03:47:23 ( 22.65, 140.93)
6 10/06/2013 14:35:19 ( 18.70, 165.59) 10/06/2013 14:37:47 ( 10.01, 163.55)
7 10/06/2013 16:15:41 ( 22.69, 141.20) 10/06/2013 16:17:40 ( 15.71, 139.50)
8 10/07/2013 03:24:46 ( 10.01, 148.71) 10/07/2013 03:28:22 ( 22.69, 145.68)
9 10/07/2013 15:56:40 ( 22.65, 145.95) 10/07/2013 16:00:15 ( 10.03, 142.94)
10 10/08/2013 03:05:46 ( 10.06, 153.45) 10/08/2013 03:09:21 ( 22.68, 150.44)
11 10/08/2013 15:37:39 ( 22.66, 150.71) 10/08/2013 15:41:14 ( 10.04, 147.70)
12 10/09/2013 02:46:45 ( 10.04, 158.22) 10/09/2013 02:50:20 ( 22.66, 155.21)
13 10/09/2013 15:18:37 ( 22.68, 155.48) 10/09/2013 15:22:13 ( 10.00, 152.45)
14 10/10/2013 02:27:43 ( 10.02, 162.98) 10/10/2013 02:31:18 ( 22.64, 159.97)
15 10/10/2013 14:59:36 ( 22.70, 160.24) 10/10/2013 15:03:12 ( 10.02, 157.21)
16 10/11/2013 02:11:18 ( 19.17, 165.59) 10/11/2013 02:12:18 ( 22.69, 164.72)
17 10/11/2013 03:50:12 ( 10.01, 142.37) 10/11/2013 03:53:37 ( 22.04, 139.50)
18 10/11/2013 14:40:35 ( 22.66, 164.99) 10/11/2013 14:44:10 ( 10.04, 161.98)
19 10/11/2013 16:22:05 ( 22.65, 139.61) 10/11/2013 16:22:12 ( 22.24, 139.51)
20 10/12/2013 03:31:11 ( 10.05, 147.11) 10/12/2013 03:34:46 ( 22.67, 144.10)
21 10/12/2013 16:03:04 ( 22.67, 144.37) 10/12/2013 16:06:39 ( 10.05, 141.36)
22 10/13/2013 03:12:10 ( 10.04, 151.88) 10/13/2013 03:15:45 ( 22.66, 148.87)
23 10/13/2013 15:44:02 ( 22.68, 149.14) 10/13/2013 15:47:38 ( 10.01, 146.11)
24 10/14/2013 02:53:08 ( 10.02, 156.64) 10/14/2013 02:56:43 ( 22.64, 153.63)
25 10/14/2013 15:25:01 ( 22.70, 153.90) 10/14/2013 15:28:37 ( 10.02, 150.87)
26 10/15/2013 02:34:07 ( 10.01, 161.40) 10/15/2013 02:37:43 ( 22.69, 158.37)
27 10/15/2013 15:06:00 ( 22.65, 158.65) 10/15/2013 15:09:35 ( 10.03, 155.64)
28 10/16/2013 02:15:47 ( 12.46, 165.59) 10/16/2013 02:18:41 ( 22.68, 163.14)
29 10/16/2013 03:56:36 ( 10.06, 140.77) 10/16/2013 03:58:09 ( 15.52, 139.50)
30 10/16/2013 14:46:59 ( 22.67, 163.41) 10/16/2013 14:50:34 ( 10.05, 160.40)
31 10/17/2013 03:37:35 ( 10.05, 145.53) 10/17/2013 03:41:10 ( 22.67, 142.52)
32 10/17/2013 14:31:01 ( 11.94, 165.59) 10/17/2013 14:31:34 ( 10.00, 165.15)


NCC Satellite Cal/Val Overpasses Prediction Service
